Regional Weather Roundup
Issued by NWS San Angelo, TX

Home | Current Version | Previous Version | Text Only | Print | Product List | Glossary On
Versions: 1 2 3 4 5 6 7 8 9 10 11 12 13 14 15 16 17 18 19 20 21 22 23 24 25 26 27 28 29 30 31 32 33 34 35 36 37 38 39 40 41 42 43 44 45 46 47 48 49 50
000
ASUS44 KSJT 282210
RWRSJT
WEST CENTRAL TEXAS REGIONAL WEATHER ROUNDUP
NATIONAL WEATHER SERVICE SAN ANGELO TX
500 PM CDT FRI APR 28 2017

NOTE: "FAIR" INDICATES FEW OR NO CLOUDS BELOW 12,000 FEET WITH NO
SIGNIFICANT WEATHER AND/OR OBSTRUCTIONS TO VISIBILITY.

TXZ049-054-064>066-071>073-076>078-098-099-113-114-127-128-139-140-
154-155-168>170-282300
...LOCATIONS ACROSS WEST CENTRAL TEXAS...

CITY           SKY/WX    TMP DP  RH WIND       PRES   REMARKS
SAN ANGELO     CLOUDY    96  46  18 W5        29.52F
ABILENE        PTSUNNY   84  62  47 S8        29.56F
DYESS AFB      PTSUNNY   85  61  44 SE7       29.55F
JUNCTION       CLOUDY    92  63  38 SE9       29.54F
SWEETWATER     CLOUDY    85  56  37 SE15      29.59F
BROWNWOOD      PTSUNNY   88  66  48 SE10      29.55S
COLEMAN        PTCLDY    89  60  36 SE12G17   29.55F
SONORA         MOSUNNY   91  50  24 VRB5      29.59F
OZONA            N/A     93  41  16 W14G20    29.58F
BRADY          NOT AVBL
$$

TEXAS PANHANDLE/OKLAHOMA PANHANDLE

CITY           SKY/WX    TMP DP  RH WIND       PRES   REMARKS
AMARILLO       CLOUDY    69  42  37 VRB5      29.62F
BORGER         CLOUDY    66  45  46 N16       29.67R
CANADIAN       CLOUDY    71  46  40 E10       29.63R
DALHART        LGT RAIN  50  46  86 N20G30    29.74R
DUMAS          CLOUDY    53  41  65 N21       29.73R
GUYMON         NOT AVBL
HEREFORD       CLOUDY    77  40  26 S18G25    29.58F
PAMPA          CLOUDY    70  41  34 SE12      29.65S
PERRYTON       CLOUDY    65  41  41 NE7       29.68R
$$

SOUTHERN PANHANDLE/SOUTH PLAINS/ROLLING PLAINS

CITY           SKY/WX    TMP DP  RH WIND       PRES   REMARKS
LUBBOCK        CLOUDY    83  35  18 SW16G25   29.58F
SNYDER         CLOUDY   N/A N/A N/A S3        29.58F
CHILDRESS      CLOUDY    82  45  27 E9        29.59S
SEMINOLE       CLOUDY    85  36  17 SW16G23   29.57F
$$

PERMIAN BASIN

CITY           SKY/WX    TMP DP  RH WIND       PRES   REMARKS
MIDLAND        CLOUDY    90  37  15 SW15G21   29.55F
ODESSA         CLOUDY    89  35  14 SW14      29.56F
WINK           CLOUDY    90  32  12 SW18      29.52F
$$

FAR WEST/SOUTHWEST MOUNTAINS/TRANS PECOS

CITY           SKY/WX    TMP DP  RH WIND       PRES   REMARKS
ALPINE         CLEAR     89  28  11 SW17G25   29.71F
DRYDEN           N/A     93  54  26 SE17G26   29.52F
EL PASO        PTSUNNY   84  31  14 W26G44    29.57F
FORT STOCKTON  MOSUNNY   95  35  12 S12G21    29.53F
GUADALUPE PASS CLOUDY    81  31  16 SW37G52   29.62F
MARFA          SUNNY     85  29  13 SW21G26   29.70F
PECOS          PTCLDY    91  33  12 SW15G22   29.51F
$$

DALLAS/FORT WORTH METROPLEX

CITY           SKY/WX    TMP DP  RH WIND       PRES   REMARKS
DFW AIRPORT    CLOUDY    87  69  54 SE22G31   29.54F
FTW MEACHAM    CLOUDY    86  70  58 SE17      29.55F
DAL-EXECUTIVE  CLOUDY    84  69  60 S10       29.56F
GRAND PRAIRIE  SUNNY     84  66  54 SE7       29.58F
ADDISON        PTSUNNY   84  68  58 S18       29.58F
MESQUITE       CLOUDY    82  70  65 SE13      29.58F
LANCASTER      MOCLDY    82  70  66 SE9       29.58F
$$

NORTH CENTRAL TEXAS

CITY           SKY/WX    TMP DP  RH WIND       PRES   REMARKS
SHRMAN/DENISON CLOUDY    82  68  62 S13       29.59S
GAINESVILLE    CLOUDY    81  67  63 S8        29.59F
BRIDGEPORT     PTCLDY    84  66  55 SE8       29.56F
DENTON         CLOUDY    84  70  62 SE15      29.55F
WAXAHACHIE     CLOUDY    82  71  67 SE9       29.58F
GRANBURY       CLOUDY    87  68  52 SE14G22   29.55F
$$

WESTERN NORTH TEXAS

CITY           SKY/WX    TMP DP  RH WIND       PRES   REMARKS
WICHITA FALLS  PTSUNNY   82  63  52 SE15      29.56S
VERNON         CLOUDY    87  39  18 E17       29.56F
BRECKENRIDGE   CLOUDY    87  63  45 SE12      29.54F HAZE
COMANCHE       CLOUDY    87  68  53 SE9G20    29.56S
$$

CENTRAL AND SOUTH CENTRAL TEXAS

CITY           SKY/WX    TMP DP  RH WIND       PRES   REMARKS
AUSTIN/BERGSTM MOSUNNY   94  68  42 S15G28    29.53F
WACO           MOSUNNY   88  68  51 S20G26    29.55F
HILLSBORO      CLOUDY    85  70  60 SE9       29.57F
TEMPLE         MOSUNNY   89  70  53 S20       29.55F
KILLEEN-GRAY   PTSUNNY   89  67  48 SE16      29.54F
FORT HOOD      MOSUNNY   88  67  49 S14G20    29.52F
GEORGETOWN     MOSUNNY   90  68  48 SE12G18   29.55F
LAGO VISTA     MOCLDY    90  67  46 SE9       29.58F
SAN MARCOS     MOSUNNY   93  70  46 S10       29.54F
NEW BRAUNFELS  SUNNY     94  68  42 S17       29.52F
RANDOLPH AFB   SUNNY     94  69  44 S15       29.52F
SAN ANTONIO    MOSUNNY   92  68  45 S10G20    29.53F
STINSON        SUNNY     95  66  38 S12       29.50F
PLEASANTON     NOT AVBL
LA GRANGE      SUNNY     90  73  56 SE13G20   29.54F
GIDDINGS       CLEAR     89  70  52 S14G22    29.57F
$$

EAST TEXAS

CITY           SKY/WX    TMP DP  RH WIND       PRES   REMARKS
PARIS          CLOUDY    82  70  65 S10       29.62F
CLARKSVILLE    NOT AVBL
TYLER          MOSUNNY   88  71  57 S17       29.59F
LONGVIEW       MOSUNNY   88  73  61 S18G28    29.61F
PALESTINE      PTCLDY    90  73  57 SE13      29.60S
NACOGDOCHES    PTSUNNY   88  73  62 S16G24    29.62F
$$

TEXAS HILL COUNTRY AND EDWARDS PLATEAU

CITY           SKY/WX    TMP DP  RH WIND       PRES   REMARKS
LLANO          MOCLDY    93  68  43 SE12      29.57S
HORSESHOE BAY    N/A    N/A N/A N/A SE9       29.55F
KERRVILLE      SUNNY     84  71  65 S6        29.59F
FREDERICKSBRG  MOSUNNY   85  65  50 SW9       29.58F
ROCKSPRINGS    CLEAR     88  64  45 CALM      29.61F
HONDO          SUNNY     90  70  51 CALM      29.53F
UVALDE         CLEAR     84  70  63 CALM      29.55F
DEL RIO        SUNNY     89  67  47 SE14      29.49F
$$

SOUTHEAST TEXAS

CITY           SKY/WX    TMP DP  RH WIND       PRES   REMARKS
COLLEGE STN    SUNNY     91  71  51 S18G31    29.57F
CALDWELL       NOT AVBL
CROCKETT       MOCLDY    86  73  66 SE15G23   29.64S
BRENHAM        SUNNY     91  72  52 SE13G24   29.59S
HUNTSVILLE     SUNNY     90  69  50 S14G22    29.61F
CONROE         MOSUNNY   88  74  63 SE17G24   29.63F
HOUSTON BUSH   PTSUNNY   85  75  72 SE18      29.63F
HOUSTON HOBBY    N/A     84  74  71 S16G23    29.64F
PERLAND        CLOUDY    86  74  67 SE15G25   29.66F
WHARTON        CLEAR     86  69  55 SE17G24   29.61F
$$

THE UPPER TEXAS COAST

CITY           SKY/WX    TMP DP  RH WIND       PRES   REMARKS
ORANGE         CLOUDY    81  76  85 SE12G21   29.74S HAZE
PORT ARTHUR    CLOUDY    82  75  79 SE17      29.71S
GALVESTON      CLOUDY    83  77  82 SE14      29.68F HAZE
ANGLETON       PTSUNNY   85  76  74 S15       29.65F
BAY CITY       MOCLDY    86  75  71 SE15      29.63S
$$

TEXAS COASTAL BEND, RIO GRANDE PLAINS DEEP SOUTH TEXAS

CITY           SKY/WX    TMP DP  RH WIND       PRES   REMARKS
VICTORIA       SUNNY     88  73  61 S23       29.57F
BEEVILLE       FAIR      92  77  61 SE14G22   29.52F
ROCKPORT       SUNNY     85  74  69 SE17G24   29.55F
PORT ARANSAS   CLEAR     82  74  78 SE16G22   29.55F HAZE
PORT LAVACA    CLEAR     85  76  72 SE17G23   29.58F
CORPUS CHRISTI MOSUNNY   93  71  48 SE26G32   29.51F
KINGSVILLE NAS MOSUNNY   97  74  47 SE23G30   29.48F
COTULLA        SUNNY     99  60  27 SE6       29.47F
LAREDO         SUNNY    100  66  32 VRB5      29.46F
BROWNSVILLE    SUNNY     91  73  55 SE28G35   29.54S
PORT ISABEL    CLOUDY    92  74  55 S25G36    29.52S HAZE
HEBBRONVILLE   CLEAR     98  60  27 S9        29.49F
MCALLEN        SUNNY     98  71  41 SE21      29.48F
WESLACO        SUNNY     93  70  46 S25G33    29.49F
FALFURRIAS     CLEAR    100  63  29 S20G25    29.47F
EDINBURG       CLEAR     97  64  34 SE16G26   29.49F
$$



USA.gov is the U.S. government's official web portal to all federal, state and local government web resources and services.